Find Starlink 32507

NORAD ID: 62132 Int'l Des: 2024-222 Owner: SPXS Country: US Constellation: starlink operational
LEOCIRCULAR

リアルタイム位置

3D地球を読み込み中...

Starlink 32507について

説明を読み込み中...

次回通過

Passes for default location (London). Set your location on the main map for personalized predictions.

高度履歴

Loading altitude history...

軌道要素

1 62132U 24222U 26126.49032264 .00012049 00000-0 44648-3 0 9998
2 62132 42.9993 169.3429 0001435 276.3041 83.7647 15.27591567 81442
Epoch: May 6, 2026 • Age: 5 hours

現在のステータス

高度 484.5 km
速度 7.62 km/s
衛星直下点 -10.98°S, 45.69°E
打ち上げ日 Nov 27, 2024
運用期間 1.4 years
タイプ internet

技術仕様

分類 Payload
質量 730.00 kg
乾燥質量 700.00 kg
総質量 730.00 kg
長さ 0.30 m
直径 4.10 m
スパン 29.00 m
形状 Box + pan
製造者 SPXS
バスタイプ Starlink V2M
フェーズステータス In Orbit
所有者/国 SPXS/US

Most Searched